Home   Weather   Włocławek   Past weeks

Flag for Poland Past Weather in Włocławek, Poland — Yesterday and Last 2 Weeks

Now
44 °F

Quite cool.


Feels Like: 44 °F
Forecast: 41 / 66 °F
Wind: 2 mph from East

Location: Plock

Current Time: Sep 27, 2016 at 9:04:29 AM

Latest Report: Sep 27, 2016 at 8:00 AM


Visibility: 9 mi

Pressure: 30.37 "Hg

Humidity: 82%

Dew Point: 39 °F

Location of WłocławekLocation

Past Weather in Włocławek — Graph

°F

Włocławek Temperature Yesterday

Maximum temperature yesterday: 61 °F (at 4:00 PM)
Minimum temperature yesterday: 43 °F (at 7:00 AM)
Average temperature yesterday: 52 °F

High & Low Weather Summary for the Past Weeks

 TemperatureHumidityPressure
High85 °F (Sep 12, 2:00 PM)98% (Sep 23, 6:00 AM)30.37 "Hg (Sep 23, 6:00 AM)
Low38 °F (Sep 25, 6:00 AM)30% (Sep 15, 3:00 PM)29.92 "Hg (Sep 16, 6:00 PM)
Average57 °F68%30.12 "Hg
* Reported Sep 12 7:00 AM — Sep 27 7:00 AM, Włocławek, Weather by CustomWeather, © 2016

Note: Actual official high and low records may vary slightly from our data, if they occured in-between our weather recording intervals... More about our weather records

Advertising

Włocławek Weather History for the Previous 24 Hours

Scroll right to see more
 ConditionsComfort  
Time TempWeatherWind HumidityBarometerVisibility
7:00 AM
Tue, Sep 27
42 °FQuite cool.2 mph85%30.37 "Hg10 mi
6:00 AM41 °FQuite cool.2 mph90%30.36 "Hg8 mi
5:00 AM39 °FChilly.2 mph91%30.35 "Hg6 mi
4:00 AM39 °FChilly.2 mph90%30.34 "Hg7 mi
3:00 AM41 °FQuite cool.2 mph89%30.34 "Hg9 mi
2:00 AM41 °FQuite cool.2 mph87%30.34 "Hg8 mi
1:00 AM43 °FQuite cool.1 mph83%30.34 "Hg9 mi
12:00 AM45 °FQuite cool.2 mph80%30.34 "Hg11 mi
11:00 PM
Mon, Sep 26
45 °FCool.2 mph79%30.34 "Hg10 mi
10:00 PM47 °FCool.2 mph78%30.33 "Hg11 mi
9:00 PM48 °FCool.3 mph73%30.32 "Hg11 mi
8:00 PM49 °FCool.3 mph70%30.32 "Hg11 mi
7:00 PM53 °FCool.3 mph62%30.30 "Hg18 mi
6:00 PM57 °FRefreshingly cool.3 mph52%30.29 "Hg22 mi
5:00 PM60 °FRefreshingly cool.5 mph49%30.27 "Hg19 mi
4:00 PM61 °FRefreshingly cool.3 mph48%30.27 "Hg19 mi
3:00 PM61 °FRefreshingly cool.5 mph49%30.27 "Hg19 mi
2:00 PM61 °FRefreshingly cool.3 mph49%30.28 "Hg18 mi
1:00 PM60 °FRefreshingly cool.3 mph53%30.29 "Hg16 mi
12:00 PM59 °FRefreshingly cool.5 mph55%30.29 "Hg17 mi
11:00 AM58 °FRefreshingly cool.5 mph58%30.29 "Hg19 mi
10:00 AM55 °FCool.5 mph65%30.29 "Hg16 mi
9:00 AM50 °FCool.5 mph76%30.30 "Hg17 mi
Weather by CustomWeather, © 2016

See weather overviewHow to use our weather pages